Flag for U.S.A. Weather past 2 weeks in Olympia, Washington, U.S.A.

Now
64 °F

Clear.


Feels Like: 64 °F
Forecast: 53 / 83 °F
Wind: 7 mph from Northeast

Location: Olympia Airport

Current Time: Sep 20, 2014 at 10:06:23 PM

Latest Report: Sep 20, 2014 at 8:54 PM


Visibility: 10 mi

Pressure: 29.89 "Hg

Humidity: 73%

Dew point: 55 °F

Location of OlympiaLocation

Historic Weather in Olympia — Graph

°F

Olympia temperature yesterday

Maximum temperature yesterday: 77 °F (at 2:54 PM)
Minimum temperature yesterday: 55 °F (at 11:54 PM)
Average temperature yesterday: 65 °F

Past Weeks' High & Low Weather Summary

 TemperatureHumidityPressure
High89 °F (Sep 6, 3:54 PM)100% (Sep 7, 5:54 AM)30.27 "Hg (Sep 7, 5:54 AM)
Low37 °F (Sep 12, 5:54 AM)13% (Sep 13, 4:54 PM)29.71 "Hg (Sep 17, 2:54 PM)
Average62 °F66%29.96 "Hg
* Reported Sep 5 8:54 PM — Sep 20 8:54 PM, Olympia, Weather by CustomWeather, © 2014

Note: Actual official high and low records may vary slightly from our data, if they occured in-between our weather recording intervals... More about our weather records

Advertising

Olympia weather history for previous 24 hours

 ConditionsComfort  
Time TempWeatherWind HumidityBarometerVisibility
8:54 PM
Sep 20
64 °FClear.7 mph73%29.89 "Hg10 mi
7:54 PM66 °FSunny.7 mph70%29.89 "Hg10 mi
6:54 PM73 °FSunny.6 mph55%29.89 "Hg10 mi
5:54 PM75 °FSunny.10 mph47%29.91 "Hg10 mi
4:54 PM76 °FSunny.10 mph47%29.93 "Hg10 mi
3:54 PM75 °FSunny.10 mph50%29.95 "Hg10 mi
2:54 PM75 °FSunny.8 mph50%29.97 "Hg10 mi
1:54 PM72 °FSunny.16 mph55%30.00 "Hg10 mi
12:54 PM69 °FSunny.13 mph61%30.03 "Hg10 mi
11:54 AM64 °FScattered clouds.12 mph75%30.06 "Hg10 mi
10:54 AM60 °FLow clouds.13 mph86%30.09 "Hg10 mi
5:54 AM50 °FFog.No wind96%30.08 "Hg3 mi
5:04 AM50 °FFog.No wind96%30.09 "Hg1 mi
4:54 AM49 °FFog.No wind97%30.09 "Hg1 mi
4:00 AM50 °FFog.No wind100%30.09 "Hg1 mi
3:00 AM51 °FFog.No wind100%30.10 "Hg1 mi
2:02 AM51 °FFog.No wind100%30.10 "Hg1 mi
1:54 AM51 °FClear.No wind96%30.10 "Hg7 mi
12:54 AM53 °FClear.No wind96%30.10 "Hg10 mi
11:54 PM
Sep 19
55 °FClear.No wind96%30.10 "Hg10 mi
10:54 PM57 °FClear.No wind93%30.11 "Hg10 mi
Weather by CustomWeather, © 2014

See weather overviewHow to use our weather pages